Regional Weather Roundup
Issued by NWS

Home | Current Version | Previous Version | Graphics & Text | Print | Product List | Glossary On
Versions: 1 2 3 4 5 6 7 8 9 10 11 12 13 14 15 16 17 18 19 20 21 22 23 24 25 26 27 28 29 30 31 32 33 34 35 36 37 38 39 40 41 42 43 44 45 46 47 48 49 50
000
ASUS43 KIND 280409
RWRIN

WEATHER ROUNDUP FOR INDIANA
NATIONAL WEATHER SERVICE INDIANAPOLIS IN
1200 AM EDT THU AUG 28 2014

NOTE: "FAIR" INDICATES FEW OR NO CLOUDS BELOW 12,000 FEET WITH NO
SIGNIFICANT WEATHER AND/OR OBSTRUCTIONS TO VISIBILITY.

* - STATION DOES NOT REPORT WEATHER SUCH AS PRECIPITATION OR FOG.

+ - STATION NOT QUALITY CONTROLLED BY THE NATIONAL WEATHER SERVICE.
    USE DATA WITH CAUTION...ESPECIALLY DEWPOINT AND RELATIVE
    HUMIDITY OBSERVATIONS.

INZ001>003-010>013-019-020-280500-
NORTHWEST INDIANA

CITY           SKY/WX    TMP DP  RH WIND       PRES   REMARKS
GARY /AIRPORT/ CLEAR     70  61  74 NE9       30.13S
KNOX *+        CLEAR     61  58  90 N6        30.12S
LA PORTE +     CLEAR     63  59  87 NE6       30.14S
MICHIGAN CITY+ CLEAR     61  61 100 CALM      30.13F
MONTICELLO +   CLEAR     65  61  86 NE5       30.10S
RENSSELAER +   CLEAR     63  63 100 NE6       30.12R
VALPARAISO     CLEAR     60  58  92 NE5       30.13S

$$

LMZ046-743>745-280500-
SOUTHERN LAKE MICHIGAN

STATION/POSITION TIME  TEMP WIND        PRES
                       AIR  DIR/SP/G
                 (UTC) (F)  (DEG/KT/KT) (MB)
MICHIGAN CITY    0400   66   60/ 10/ 12   N/A

$$

INZ004-005-014>016-021>024-280500-
NORTH CENTRAL INDIANA

CITY           SKY/WX    TMP DP  RH WIND       PRES   REMARKS
GOSHEN         PTCLDY    65  61  87 N7        30.12S
LOGANSPORT +   PTCLDY    63  59  88 N5        30.11S
PERU/GRISSOM   PTCLDY    66  66 100 N3        30.10S
ROCHESTER +    PTCLDY    64  61  88 N3        30.11F
SOUTH BEND     PTCLDY    64  59  83 NE7       30.13F
WARSAW +       PTCLDY    63  61  94 CALM      30.12S

$$

INZ006>009-017-018-025>027-280500-
NORTHEAST INDIANA

CITY           SKY/WX    TMP DP  RH WIND       PRES   REMARKS
ANGOLA *+      CLEAR     63  61  94 CALM      30.13S
AUBURN +       PTCLDY    64  57  77 CALM      30.12S
FORT WAYNE     MOCLDY    68  60  75 NE10      30.11S
HUNTINGTON +   PTCLDY    65  61  87 CALM      30.11S

$$

INZ028-029-035-036-043>045-051>053-280500-
WEST CENTRAL INDIANA

CITY           SKY/WX    TMP DP  RH WIND       PRES   REMARKS
GREENCASTLE +  CLEAR     72  68  88 CALM      30.10S
LAFAYETTE      CLEAR     67  60  78 NE5       30.10R
TERRE HAUTE    CLEAR     73  68  84 NE6       30.08S

$$

INZ030>032-037>040-046>048-054>057-064-065-280500-
CENTRAL INDIANA

CITY           SKY/WX    TMP DP  RH WIND       PRES   REMARKS
CP ATTERBURY + PTCLDY    72  66  83 N5        30.08F
FRANKFORT +    CLEAR     67  66  94 N5        30.11S
GREENWOOD *+   PTCLDY    73  66  78 NE3       30.09F
INDIANAPOLIS   CLEAR     73  64  73 NE6       30.07S
-EAGLE CREEK   CLEAR     73  63  70 CALM      30.08S
KOKOMO *+      PTCLDY    66  61  82 NE6       30.09F
MARION +       PTCLDY    66  60  82 NE5       30.10F
MT COMFORT *+  CLEAR     66 N/A N/A CALM      30.09F
SHELBYVILLE    PTCLDY    72  67  84 NE5       30.08S
ZIONSVILLE +   CLEAR     68  63  83 N3        30.11R

$$

INZ033-034-041-042-049-050-058-059-280500-
EAST CENTRAL INDIANA

CITY           SKY/WX    TMP DP  RH WIND       PRES   REMARKS
MUNCIE         CLEAR     67  61  81 NE5       30.09S

$$

INZ060-061-067>069-081>083-085>088-280500-
SOUTHWEST INDIANA

CITY           SKY/WX    TMP DP  RH WIND       PRES   REMARKS
EVANSVILLE     MOCLDY    79  68  69 CALM      30.06S
WASHINGTON +   PTCLDY    74  73  98 NW3       30.05F

$$

INZ062-063-066-070>080-084-089>092-280500-
SOUTH CENTRAL AND SOUTHEAST INDIANA

CITY           SKY/WX    TMP DP  RH WIND       PRES   REMARKS
BLOOMINGTON    PTCLDY    75  71  87 N6        30.08S
NORTH VERNON + MOCLDY    73  73 100 N5        30.08R

$$




USA.gov is the U.S. government's official web portal to all federal, state and local government web resources and services.